Home   Weather   Aylesbury   Past weeks

Flag for United Kingdom Past Weather in Aylesbury, England, United Kingdom — Yesterday and Last 2 Weeks

Now
49 °F

Cool.


Feels Like: 47 °F
Forecast: 46 / 56 °F
Wind: 6 mph from Southeast

Location: High Wicombe Hqstc

Current Time: Apr 29, 2017 at 12:54:41 pm

Latest Report: Apr 29, 2017 at 12:00 pm


Visibility: 18 mi

Pressure: 29.99 "Hg

Humidity: 70%

Dew Point: 40 °F

Location of AylesburyLocation

Past Weather in Aylesbury — Graph

°F

Aylesbury Temperature Yesterday

Maximum temperature yesterday: 53 °F (at 3:00 pm)
Minimum temperature yesterday: 42 °F (at 3:00 am)
Average temperature yesterday: 47 °F

High & Low Weather Summary for the Past Weeks

 TemperatureHumidityPressure
High60 °F (Apr 22, 4:00 pm)100% (Apr 26, 4:00 am)30.64 "Hg (Apr 26, 4:00 am)
Low30 °F (Apr 25, 4:00 am)36% (Apr 25, 2:00 pm)29.90 "Hg (Apr 24, 4:00 pm)
Average46 °F75%30.22 "Hg
* Reported Apr 14 11:00 am — Apr 29 11:00 am, Aylesbury, Weather by CustomWeather, © 2017

Note: Actual official high and low records may vary slightly from our data, if they occured in-between our weather recording intervals... More about our weather records

Advertising

Aylesbury Weather History for the Previous 24 Hours

Scroll right to see more
 ConditionsComfort  
Time TempWeatherWind HumidityBarometerVisibility
11:00 am
Sat, Apr 29
46 °FCool.2 mph70%30.01 "Hg25 mi
10:00 am45 °FQuite cool.5 mph73%30.02 "Hg22 mi
9:00 am44 °FQuite cool.3 mph74%30.02 "Hg28 mi
8:00 am43 °FQuite cool.3 mph75%30.02 "Hg22 mi
7:00 am42 °FQuite cool.2 mph77%30.02 "Hg28 mi
6:00 am42 °FQuite cool.2 mph76%30.02 "Hg25 mi
5:00 am40 °FChilly.2 mph79%30.02 "Hg31 mi
4:00 am39 °FChilly.2 mph79%30.02 "Hg31 mi
3:00 am40 °FQuite cool.3 mph78%30.02 "Hg19 mi
2:00 am42 °FQuite cool.3 mph77%30.03 "Hg19 mi
1:00 am45 °FCool.5 mph76%30.03 "Hg25 mi
12:00 am46 °FCool.6 mph81%30.03 "Hg16 mi
11:00 pm
Fri, Apr 28
47 °FCool.2 mph83%30.03 "Hg14 mi
10:00 pm49 °FCool.2 mph75%30.03 "Hg19 mi
9:00 pm49 °FCool.2 mph75%30.02 "Hg19 mi
8:00 pm50 °FCool.1 mph74%30.01 "Hg16 mi
7:00 pm50 °FCool.1 mph76%30.01 "Hg16 mi
6:00 pm51 °FCool.3 mph69%30.02 "Hg19 mi
5:00 pm53 °FCool.3 mph65%30.02 "Hg18 mi
4:00 pm53 °FCool.3 mph59%30.02 "Hg22 mi
3:00 pm53 °FCool.5 mph63%30.02 "Hg25 mi
2:00 pm53 °FCool.5 mph66%30.03 "Hg25 mi
1:00 pm53 °FCool.3 mph70%30.03 "Hg22 mi
12:00 pm51 °FCool.5 mph72%30.04 "Hg9 mi
Weather by CustomWeather, © 2017

See weather overviewHow to use our weather pages